Theta_e
312 313 313 313 313 314 316 318 321 323 326 327 328 328 328 328 326 326 328 326 324 324 325 323 320 320 319 314 310 309 306 302 301 300 299 300 299 298 299 301 302 301 299 298 297 297 297 297 296 296 295 295 295 294 293 293 293 292 292 292 292 291 291 291 291 292 292 292 291 292 291 292 292 292 292 292 292 292 291 291 291 290 290 289 289
313 313 313 313 314 314 316 319 322 324 325 327 328 328 328 327 326 326 325 324 325 325 325 323 320 320 317 312 310 308 303 300 300 299 299 300 299 299 301 301 300 299 298 297 297 297 297 296 295 295 295 294 294 293 293 292 292 292 292 292 291 291 291 291 291 291 292 292 291 291 291 291 291 291 291 292 292 291 291 291 290 290 289 289 288
313 313 313 314 315 316 318 320 323 324 325 326 327 327 327 327 326 325 323 324 326 325 323 322 321 319 316 312 309 305 301 300 300 299 299 299 298 300 301 300 299 298 297 297 297 296 296 295 295 294 294 294 293 293 292 292 292 292 292 291 291 291 291 291 291 291 291 291 291 291 291 291 291 291 291 291 291 291 290 291 290 289 289 289 289
314 313 314 314 314 316 318 320 322 324 324 325 325 325 326 326 327 326 323 325 327 323 322 323 321 319 317 312 307 303 300 299 299 298 298 298 298 299 299 299 298 297 296 296 296 296 295 295 295 294 294 293 293 292 292 292 292 291 291 291 291 291 291 291 291 291 291 291 291 291 291 291 291 290 290 290 290 290 290 290 290 289 289 288 288
313 312 312 313 313 314 315 316 318 319 320 321 321 323 325 325 327 326 324 325 325 322 323 323 321 319 317 312 305 301 300 299 298 298 298 298 299 298 297 297 297 296 296 296 296 296 295 295 294 294 293 293 292 292 292 292 291 291 291 291 291 291 291 291 291 290 290 291 291 291 291 290 290 290 289 289 290 290 290 290 289 289 288 288 287
312 312 312 312 312 312 312 313 314 314 315 314 315 319 323 325 327 326 325 325 322 321 324 323 321 319 315 310 303 300 299 298 298 298 297 299 300 298 296 296 296 295 296 296 296 295 295 294 294 294 293 293 292 292 292 291 291 291 291 291 290 290 290 290 290 290 290 290 290 291 290 290 290 289 288 288 288 289 290 290 289 289 288 288 288
312 312 312 312 311 311 312 312 313 312 312 311 313 319 323 325 327 325 324 323 321 321 323 323 321 318 313 307 302 299 298 298 297 297 297 299 299 298 296 295 295 295 295 296 296 295 295 294 294 294 293 293 292 292 292 291 291 291 290 290 290 290 290 290 290 290 290 290 290 290 290 289 289 288 288 287 287 287 287 288 289 289 289 288 288
312 311 311 311 311 311 311 311 311 312 312 312 315 319 321 322 324 324 323 323 323 322 321 321 319 315 310 305 300 298 298 297 297 297 297 298 298 296 295 295 295 295 295 296 295 295 295 294 294 293 293 293 292 292 291 291 290 290 290 290 290 290 290 290 290 290 290 290 289 289 289 289 288 288 287 287 286 286 285 285 286 287 288 288 288
311 311 311 310 310 310 309 310 311 311 310 313 317 319 320 321 322 323 324 324 323 322 319 318 317 313 307 303 299 297 297 297 297 297 297 298 296 295 295 295 295 295 296 296 295 295 295 294 294 293 293 292 292 292 291 291 290 290 290 290 290 290 289 289 289 289 289 289 289 288 288 288 287 287 287 286 285 285 285 285 285 285 286 288 288
311 310 310 309 309 310 308 310 315 315 313 317 322 322 321 322 321 321 322 323 322 321 319 318 316 312 306 301 298 297 297 296 296 296 297 297 295 295 295 294 295 296 296 296 295 295 294 294 293 293 293 292 292 291 291 290 290 290 290 290 289 289 289 289 289 289 288 288 288 287 287 287 286 286 286 285 284 285 285 284 284 285 286 287 288
311 310 309 308 310 311 309 310 317 320 318 319 320 319 319 321 320 319 320 322 322 321 320 318 315 310 304 300 298 297 296 296 296 296 295 295 294 294 294 294 295 296 295 295 295 294 294 294 293 293 293 292 292 291 291 290 290 290 289 289 289 289 288 288 288 288 288 287 287 286 286 286 286 286 285 285 285 285 285 283 282 283 284 285 286
312 311 310 309 309 311 312 313 316 319 319 319 318 318 319 320 321 320 320 321 320 319 319 317 313 308 302 299 298 297 296 296 295 295 295 295 294 294 294 294 295 295 295 295 295 294 294 293 293 293 293 292 292 291 291 290 290 290 289 289 289 288 288 288 288 287 287 287 287 286 286 286 286 285 285 285 285 285 284 283 282 283 283 283 284
312 312 311 310 309 309 312 316 317 316 316 317 318 319 319 319 320 320 319 319 318 318 318 315 310 305 301 298 297 296 296 295 295 295 295 294 294 294 294 295 295 295 295 295 294 294 293 294 294 294 293 293 292 291 291 290 290 289 289 289 289 288 288 287 287 287 287 286 286 286 286 285 285 285 284 284 285 285 284 284 284 283 283 283 283
312 312 312 311 311 309 311 315 317 316 316 317 317 318 318 318 318 318 317 317 317 318 316 311 307 304 299 297 297 296 295 295 295 295 294 294 294 294 294 295 295 295 294 294 294 293 294 295 295 295 294 293 293 291 290 290 289 289 289 289 288 288 288 287 287 287 286 286 286 286 285 285 284 284 284 284 284 284 284 284 285 284 284 283 283
312 312 312 312 311 310 311 312 313 313 315 318 318 317 317 317 317 317 316 317 317 315 312 309 306 302 298 297 296 295 295 295 294 294 294 293 294 294 294 294 294 294 294 293 293 294 295 296 296 295 295 294 293 291 290 289 289 289 288 288 288 288 287 287 287 286 286 286 286 286 285 284 284 284 284 284 284 283 284 284 285 285 285 284 284
312 312 312 312 312 311 311 312 312 312 313 315 315 316 316 316 316 316 316 316 315 311 309 307 304 300 297 297 296 295 295 294 294 294 293 293 293 294 294 294 294 294 293 293 293 295 296 297 296 296 295 294 292 291 290 289 289 288 288 288 288 287 287 287 286 286 286 286 286 285 285 284 284 284 284 284 284 284 284 284 285 284 284 284 284
312 312 311 311 312 312 312 311 312 312 312 313 313 314 314 314 315 315 315 314 311 309 307 306 302 298 297 296 295 295 294 294 294 294 293 293 293 293 293 293 293 293 292 293 295 297 297 298 297 296 295 293 292 290 289 289 288 288 288 288 288 287 287 287 286 286 286 285 285 285 284 284 284 284 284 284 284 284 284 285 284 284 284 284 284
312 312 311 311 311 311 312 312 312 313 313 314 314 314 314 314 315 314 313 310 309 308 307 304 300 297 296 296 295 295 294 294 294 294 293 293 293 293 293 293 292 292 293 295 297 298 298 298 297 296 294 292 291 290 289 289 288 288 288 288 288 287 287 287 286 286 285 285 285 285 284 284 284 284 284 284 284 284 284 284 284 283 283 283 283
311 311 311 311 311 310 311 311 312 312 313 313 314 315 314 314 313 312 310 308 308 307 305 302 299 297 295 295 295 294 294 294 294 293 293 293 292 292 292 292 292 293 295 297 299 299 299 298 297 296 294 292 290 290 289 288 288 288 288 288 287 287 287 286 286 286 285 285 285 284 284 284 284 284 284 284 284 284 284 284 284 283 283 283 282
311 311 311 311 310 310 310 310 310 310 310 311 313 314 313 312 311 310 309 308 307 306 304 301 298 296 295 295 294 294 293 293 293 293 292 292 292 292 292 292 292 295 298 299 299 300 299 298 298 296 293 291 290 289 289 288 288 288 288 288 287 287 286 286 285 285 285 285 285 284 284 284 284 284 284 284 284 285 284 283 283 283 282 282 282
310 310 310 310 310 310 310 310 309 309 309 309 310 311 311 311 310 309 308 307 306 305 303 299 296 295 295 294 294 293 293 293 293 292 292 292 291 291 291 292 294 297 300 300 300 299 299 299 298 295 293 291 290 289 288 288 287 287 287 287 287 286 286 286 285 285 285 285 284 284 284 284 284 284 284 284 284 285 284 283 283 283 282 282 281
309 309 309 309 309 309 309 309 309 309 309 309 309 309 309 310 310 309 308 306 305 304 301 298 296 294 294 294 293 293 292 292 292 292 291 291 291 291 292 294 297 299 300 299 299 299 299 299 298 295 293 292 290 289 288 287 287 287 287 287 286 286 285 285 285 285 285 285 284 284 284 284 284 284 284 284 285 285 284 283 283 283 282 281 281
309 309 309 309 309 309 309 308 308 308 308 308 308 308 308 308 309 309 307 305 304 303 300 297 294 294 293 293 293 292 292 292 292 291 291 291 290 291 293 296 299 299 299 299 299 299 299 299 297 295 294 292 289 288 287 287 287 287 287 286 286 285 285 285 285 285 285 284 284 284 284 284 284 284 284 284 285 284 284 283 283 282 282 281 281
309 309 309 309 309 309 308 308 308 308 307 307 307 307 307 307 307 308 306 305 303 302 299 296 294 293 293 293 293 292 292 292 292 291 291 291 290 292 295 298 299 299 299 299 298 299 299 298 297 295 293 290 288 287 287 287 287 287 286 286 286 285 285 285 284 284 284 284 284 284 284 284 284 284 284 284 284 284 283 283 283 282 282 281 281
309 309 309 309 309 308 308 308 308 307 307 306 306 306 306 306 306 306 305 304 303 301 299 297 294 293 293 293 293 293 292 292 292 291 291 290 290 293 297 299 299 299 298 298 298 298 298 298 297 295 292 289 287 287 287 287 286 286 286 286 286 285 285 285 284 284 284 284 284 284 284 284 284 284 284 284 284 284 283 283 282 282 281 281 281
309 309 309 309 308 308 308 308 308 307 307 306 306 305 305 305 305 305 304 304 303 301 299 297 295 293 293 293 293 293 292 292 292 291 291 290 290 294 298 299 299 298 298 298 298 298 298 298 296 293 289 287 287 287 286 286 286 286 286 286 285 285 284 284 284 284 284 284 284 284 284 284 284 284 284 284 284 284 283 283 282 281 281 281 280
309 309 309 309 308 308 308 308 308 307 307 306 306 305 305 305 304 304 303 303 303 301 299 297 295 293 293 293 293 293 292 292 291 291 291 290 290 294 298 299 299 298 298 298 297 297 298 297 295 290 288 287 287 286 286 286 286 286 286 285 285 284 284 284 284 284 284 284 284 284 284 284 284 284 284 284 284 284 283 283 282 282 281 281 281
308 308 308 308 308 308 308 308 308 307 307 306 306 305 305 304 304 304 304 303 303 302 301 299 297 296 294 293 293 293 292 291 291 291 291 291 290 293 297 299 299 298 298 297 297 297 298 297 293 289 287 286 286 286 286 286 285 285 285 285 285 284 284 284 284 284 284 284 284 284 284 284 284 284 284 284 284 284 283 283 283 282 282 281 281
308 308 308 308 308 308 308 308 307 307 307 307 306 305 305 304 303 303 302 302 301 300 300 299 298 297 295 294 293 293 292 292 292 292 291 291 290 292 295 298 298 298 297 296 296 296 297 296 293 288 286 286 286 286 286 285 285 285 285 285 284 284 283 283 283 283 283 284 284 284 284 283 283 284 284 284 284 284 283 283 283 282 282 281 281
307 307 307 307 307 307 307 307 307 307 307 307 306 305 304 304 303 302 301 300 299 298 297 296 295 294 293 292 292 292 292 292 292 292 291 290 289 291 295 297 297 297 296 295 295 295 296 295 291 287 286 286 286 285 285 285 285 285 285 284 284 283 283 283 283 283 283 283 283 283 283 283 283 283 284 284 284 284 283 283 283 282 282 282 281
307 307 306 306 307 306 306 306 306 306 306 306 306 305 304 303 302 301 300 299 298 297 295 294 293 292 291 291 291 291 290 290 290 290 290 289 288 290 293 295 296 296 295 294 293 294 294 292 289 286 286 286 285 285 285 285 285 285 284 284 284 283 283 283 283 283 283 283 283 283 283 283 283 283 283 283 284 283 283 283 282 282 282 282 281
306 306 305 305 305 305 305 305 305 306 305 305 305 304 304 303 302 301 300 299 298 297 295 293 292 291 290 290 290 290 290 289 289 289 288 288 288 289 291 293 295 295 294 293 292 292 291 289 286 285 285 285 285 285 285 285 285 284 284 284 283 283 283 283 282 282 282 283 283 283 282 282 283 283 283 283 283 283 283 282 282 282 282 282 281
305 305 305 305 304 304 304 305 305 305 305 304 304 303 302 302 301 300 299 298 297 296 295 293 292 290 290 289 289 289 289 289 288 288 288 287 287 288 289 292 293 293 293 292 292 290 288 286 285 285 285 285 285 285 285 284 284 284 284 284 283 283 283 282 282 282 282 282 282 282 282 282 282 282 282 282 283 283 282 282 282 282 281 281 281
303 303 303 303 303 304 304 304 304 304 304 304 303 303 302 301 300 298 298 297 296 295 294 293 292 290 290 289 289 289 289 288 288 288 287 287 287 287 288 289 290 290 291 291 291 289 286 285 285 285 285 285 285 285 284 284 284 284 284 284 283 283 282 282 282 282 282 282 282 282 281 281 281 282 282 282 282 282 282 282 281 281 281 281 281
302 302 302 302 302 303 302 303 303 303 303 303 303 302 302 301 300 299 298 297 296 294 294 293 292 291 290 289 289 289 288 288 287 287 287 286 286 286 286 287 288 288 288 289 289 288 286 285 285 284 284 284 284 284 284 284 284 284 284 284 283 283 282 281 281 281 281 281 281 281 281 281 281 281 281 281 281 281 281 281 281 281 281 281 281
300 300 300 300 301 301 301 301 302 302 302 302 302 302 302 301 301 300 299 297 296 295 293 293 292 290 289 289 288 288 287 287 287 287 286 286 285 285 285 286 286 287 287 288 288 287 285 285 285 284 284 284 284 284 284 284 284 284 284 283 283 282 281 281 281 281 281 281 281 281 280 280 280 280 280 280 280 280 281 281 281 281 281 281 280
296 296 297 297 297 298 298 299 299 299 300 300 300 300 300 300 300 299 299 298 297 296 294 293 292 290 289 289 288 287 287 287 286 286 285 285 285 285 285 285 285 285 286 286 287 286 285 284 284 284 284 284 284 284 284 284 284 284 283 283 282 281 281 281 280 280 280 280 280 280 280 280 280 279 279 279 279 280 280 280 280 280 280 280 280
294 295 294 294 295 295 295 295 296 296 297 297 298 298 298 298 298 297 297 297 296 295 294 293 292 291 290 289 288 287 286 285 285 285 285 284 284 284 285 285 285 285 285 286 285 284 284 284 284 283 283 283 283 283 283 284 283 283 283 282 282 281 280 280 280 280 280 280 279 279 279 279 279 279 279 279 279 279 279 279 280 280 280 279 279
293 293 293 293 293 293 293 293 293 294 294 294 295 295 295 296 296 296 295 295 295 294 293 293 292 292 291 290 288 287 286 285 285 285 284 285 285 285 285 285 285 285 285 285 285 284 283 283 283 283 283 283 283 283 283 283 283 282 282 282 281 280 280 279 279 279 279 279 279 279 279 279 279 278 278 278 278 278 278 279 279 279 279 279 279
291 291 291 291 291 291 291 291 291 291 291 292 292 292 292 293 293 294 294 294 294 294 294 293 293 293 291 290 288 287 286 285 285 285 284 284 284 284 284 284 285 285 285 285 284 284 283 283 283 283 283 283 283 283 283 283 282 282 281 281 280 279 279 279 278 278 278 278 278 278 278 278 278 278 278 278 277 278 278 278 278 278 278 278 278
289 289 289 289 289 289 289 289 289 289 289 289 289 289 289 289 290 290 291 291 292 293 293 293 293 293 292 290 289 287 286 285 284 284 283 283 283 283 284 284 284 284 284 284 284 283 283 283 283 282 282 282 283 283 283 282 282 281 281 280 279 279 278 278 277 277 277 277 277 277 277 277 277 277 277 277 277 277 277 277 277 277 277 277 277
288 288 288 288 288 288 288 288 288 288 288 288 288 288 288 288 288 288 288 289 289 289 290 291 291 292 292 291 289 287 286 285 284 284 283 283 283 283 283 283 283 283 283 283 283 283 282 282 282 282 282 282 283 283 282 282 281 281 280 279 278 278 277 277 277 276 276 276 276 276 276 276 276 276 276 276 277 277 277 277 277 277 277 277 277
288 288 288 288 288 287 287 287 287 287 287 287 287 287 287 287 287 287 287 287 287 288 288 288 289 289 290 290 290 288 287 287 286 285 284 283 283 283 283 283 283 282 282 282 282 282 281 281 281 281 281 282 282 282 281 281 281 280 279 278 277 277 276 276 276 276 275 275 275 275 275 274 274 274 275 275 275 276 276 276 276 276 276 276 276
287 287 287 287 287 287 287 287 287 287 287 287 287 287 287 287 287 287 287 287 287 287 287 287 287 287 288 289 289 289 289 288 288 286 285 283 283 283 282 282 282 281 281 281 281 281 280 280 280 280 281 281 282 281 281 280 280 279 278 277 276 276 276 276 275 275 275 275 275 274 274 274 274 274 274 274 274 274 274 275 275 275 276 276 276
287 287 287 287 287 287 287 286 286 286 286 286 286 286 286 286 286 286 286 286 286 286 287 287 287 287 287 287 287 288 288 288 288 288 286 284 283 282 282 281 281 280 280 280 280 280 279 279 280 280 281 281 281 281 281 280 279 278 277 276 276 276 275 275 275 275 275 274 274 274 274 274 274 273 273 273 274 274 273 273 273 274 274 275 275
287 286 286 286 286 286 286 286 286 286 286 286 286 286 286 286 286 286 286 286 286 286 286 286 286 286 287 287 287 287 287 287 288 288 287 286 284 283 282 281 280 280 280 280 279 279 279 279 279 280 280 281 281 280 280 279 278 277 276 276 276 275 275 274 274 274 274 274 274 274 274 274 273 273 273 273 273 273 273 273 273 273 273 273 274
286 286 286 286 286 286 286 286 286 286 286 286 286 286 286 286 286 286 286 286 286 286 286 285 286 286 286 286 286 286 287 287 287 287 287 287 285 284 282 281 280 279 279 279 279 278 278 278 278 279 279 280 280 279 279 278 277 276 276 276 275 275 274 274 274 274 274 274 274 273 273 273 273 273 273 273 273 273 273 273 272 272 272 272 272
286 286 286 286 286 286 286 286 286 285 285 285 285 285 285 285 285 285 285 285 285 285 285 285 285 285 285 285 285 286 286 286 286 286 286 286 286 285 283 281 280 279 279 279 278 278 278 277 278 278 279 279 279 279 278 277 276 276 276 276 275 274 274 274 274 274 273 273 273 273 273 273 273 273 273 273 273 273 272 272 272 272 272 272 272
285 285 285 285 285 285 285 285 285 285 285 285 285 285 285 285 285 285 285 285 285 285 285 284 284 284 284 284 284 285 285 285 285 285 286 285 285 284 283 281 280 279 279 278 278 278 277 277 277 278 278 278 278 278 277 277 276 276 276 275 274 274 274 274 273 273 273 273 273 273 273 272 272 272 272 272 272 272 272 272 272 272 272 271 271
284 284 284 284 284 284 284 284 284 284 284 284 284 284 284 284 284 284 284 284 284 284 284 284 284 284 284 284 284 284 284 284 284 284 284 284 284 283 282 280 279 279 278 278 277 277 277 276 277 277 277 278 278 277 277 276 276 276 276 275 274 273 273 273 273 273 273 273 273 272 272 272 272 272 272 272 272 272 272 272 271 271 271 271 271
284 284 284 284 284 284 284 284 284 284 284 284 284 284 284 284 284 284 284 284 284 284 283 283 283 283 283 282 282 282 283 283 283 283 283 283 283 282 281 280 279 278 278 277 277 276 276 276 276 277 277 277 277 276 276 276 276 276 275 274 274 273 273 273 273 273 273 272 272 272 272 272 272 271 272 271 271 271 271 271 271 271 271 271 271
Wind_Speed
35 36 36 36 36 36 36 35 34 33 32 32 32 31 30 31 31 31 32 33 31 30 29 25 24 26 25 25 28 29 27 26 24 22 21 20 18 16 14 11 9 7 6 5 4 3 4 5 6 7 8 10 11 13 14 15 17 19 20 22 23 25 27 29 32 36 37 36 37 38 39 40 40 41 42 43 44 45 46 48 49 51 52 52 53
34 35 35 36 36 36 36 35 34 33 32 33 33 31 32 32 32 32 32 32 33 32 29 25 24 26 25 26 29 29 28 26 24 23 22 20 18 16 14 11 9 8 7 5 4 4 5 5 6 7 8 10 12 13 15 16 17 19 20 22 23 25 27 28 31 35 37 37 37 38 39 39 40 41 42 43 44 45 47 48 49 51 52 52 52
31 32 33 34 34 34 34 33 33 32 32 33 33 33 33 32 33 33 30 31 33 30 26 25 25 24 24 27 30 30 28 26 25 24 22 20 18 16 13 12 10 9 7 6 5 5 5 5 6 7 9 11 12 13 15 16 18 19 21 22 23 25 26 28 30 33 37 38 38 38 39 39 39 40 41 43 44 45 47 48 49 50 50 50 50
30 30 31 33 33 33 33 33 33 33 33 33 33 33 33 32 34 32 29 31 32 27 26 28 27 25 24 28 31 30 28 27 26 24 23 21 18 16 14 13 11 10 8 7 6 5 5 6 7 8 9 11 12 14 15 17 19 20 21 23 24 25 26 28 30 32 35 37 37 37 38 38 39 39 41 43 43 44 46 47 49 49 49 48 47
29 30 31 33 33 33 34 33 33 33 34 34 33 34 32 32 35 32 29 32 30 28 32 31 28 27 26 29 32 30 28 28 26 25 23 21 19 17 15 14 12 10 9 8 7 6 6 6 7 8 10 11 12 14 16 17 19 20 22 23 24 25 27 28 29 31 32 35 36 36 36 37 38 38 40 42 43 44 45 46 48 48 48 47 44
26 27 29 31 32 33 34 34 35 34 35 35 34 33 33 33 34 32 32 32 30 30 33 31 27 27 27 31 32 30 29 28 26 25 23 21 20 18 16 15 13 11 10 8 8 7 6 6 7 8 10 11 13 15 16 17 19 20 22 23 24 26 27 28 29 30 31 33 34 35 35 36 37 37 38 40 42 43 45 48 48 47 47 48 46
23 25 26 28 29 31 32 33 34 34 34 34 33 31 32 32 34 34 33 33 32 31 32 31 29 27 29 33 33 30 30 28 26 25 23 21 20 18 17 15 13 12 10 9 8 7 6 7 7 8 10 12 13 15 16 18 19 21 22 23 25 26 26 27 28 29 30 31 32 33 34 34 35 37 37 39 39 39 42 47 48 47 46 47 48
21 22 24 25 27 28 30 30 31 31 31 30 29 29 31 32 36 37 35 34 33 30 29 31 30 28 31 34 33 31 30 28 27 26 24 22 20 18 17 15 14 13 11 10 8 7 6 7 7 8 10 12 13 15 16 18 20 21 22 23 25 25 26 26 27 28 29 30 30 32 33 34 34 36 37 38 39 39 40 43 45 47 47 45 45
19 21 22 23 24 25 25 25 25 25 26 27 27 28 29 30 32 33 33 33 31 27 27 28 27 30 34 35 33 31 30 28 27 26 24 23 21 19 17 16 14 13 11 10 8 7 6 6 7 9 10 12 14 15 17 18 20 21 23 23 24 25 25 25 26 27 28 29 30 30 31 33 33 35 37 36 36 38 39 40 42 44 45 45 43
18 20 21 21 21 21 21 22 23 22 23 25 27 28 28 29 27 26 29 33 30 27 28 28 27 31 36 35 33 32 30 29 27 25 24 22 20 19 18 16 15 13 11 10 8 6 6 6 7 9 11 12 14 16 18 19 20 21 22 23 24 24 24 25 25 26 27 28 28 29 30 32 32 32 35 35 35 37 38 39 40 41 43 44 43
17 18 19 19 19 20 19 21 24 25 24 24 26 27 28 29 28 28 30 33 31 29 30 29 29 33 36 35 34 32 30 30 28 26 25 23 21 19 18 16 15 13 11 9 7 6 5 6 7 9 11 13 15 17 18 20 20 21 22 22 23 23 23 24 25 25 26 27 27 27 28 30 31 31 33 34 35 36 36 35 36 38 40 41 42
16 17 18 18 19 20 19 21 24 26 26 25 26 27 28 29 30 31 32 33 32 32 31 29 31 35 36 35 34 32 31 30 29 28 26 24 22 20 18 17 15 13 12 9 7 6 5 5 7 9 11 13 16 17 19 20 21 21 22 22 22 22 22 22 23 24 25 26 26 26 27 29 30 30 31 33 35 35 35 34 33 34 36 36 38
16 16 17 18 19 20 21 23 24 25 25 26 27 28 29 30 32 33 33 32 32 32 31 31 34 36 37 36 34 32 32 31 30 28 26 24 22 20 19 17 15 13 12 9 7 5 4 5 7 9 12 14 16 18 19 20 21 21 21 22 22 21 21 21 21 22 23 24 25 25 25 27 28 29 29 30 32 34 34 34 33 32 33 33 35
17 16 17 18 20 21 22 25 27 26 25 26 27 28 30 32 33 34 34 33 32 32 32 34 37 38 37 36 33 33 32 31 30 29 26 24 22 21 19 18 16 14 12 9 7 5 3 4 6 9 11 14 16 18 19 20 20 21 21 21 21 21 21 20 20 21 22 22 24 24 24 24 26 27 27 28 29 30 31 32 32 32 32 33 33
19 18 18 19 21 22 24 26 28 28 28 29 30 31 33 35 35 35 35 33 32 33 34 36 38 38 37 35 34 33 32 31 30 28 26 25 23 21 20 18 16 14 12 10 7 4 3 4 6 8 11 13 16 19 20 20 20 20 20 21 20 20 20 20 19 20 21 21 22 23 23 23 24 25 26 26 26 26 27 28 29 30 32 33 34
21 20 19 19 21 23 25 27 28 29 30 31 33 35 36 37 36 36 34 33 32 33 35 37 38 38 37 35 34 33 32 31 30 28 27 25 24 22 21 19 17 15 12 10 7 5 5 5 6 7 10 13 17 19 20 20 20 20 20 20 19 19 19 19 19 19 20 20 21 21 21 21 22 23 23 23 23 24 25 25 26 28 31 33 35
22 21 20 20 20 21 24 27 29 30 31 33 34 35 35 35 34 33 33 33 34 36 37 39 39 38 37 36 35 33 32 31 30 29 27 26 25 23 21 20 18 15 13 10 8 7 7 7 7 8 10 14 18 19 20 21 21 21 20 20 19 19 19 19 19 19 19 20 20 20 20 21 21 22 21 20 21 22 23 24 25 27 30 33 34
22 22 21 20 20 20 22 24 27 29 30 31 32 32 32 32 31 31 32 34 35 37 39 39 39 37 36 34 34 33 32 32 31 30 28 27 25 24 22 20 18 16 14 12 10 10 9 9 8 8 11 15 18 20 21 22 22 21 20 20 19 20 20 20 20 19 18 19 20 19 20 20 21 21 20 19 19 20 20 22 25 26 29 30 32
21 21 21 20 20 21 21 21 23 24 25 26 28 30 30 30 31 32 33 34 36 37 39 39 38 37 35 34 33 33 32 32 31 30 29 27 26 24 22 20 18 16 15 13 12 12 12 10 9 9 12 16 18 20 21 22 22 21 20 20 20 20 19 19 19 20 19 19 19 20 20 20 20 20 19 18 18 18 18 21 23 25 27 28 28
18 19 20 20 20 20 20 21 21 22 22 23 25 27 29 30 31 32 34 35 36 38 38 38 37 36 35 35 34 33 32 32 31 30 29 28 26 24 22 20 19 18 16 14 14 14 13 12 10 11 14 17 19 20 22 22 22 22 20 20 20 20 19 19 19 20 20 19 20 20 20 20 20 20 19 18 18 18 18 20 22 23 25 26 26
16 16 17 18 19 19 20 20 21 21 22 22 24 26 27 29 30 32 34 35 37 38 38 38 37 37 36 36 35 34 33 32 31 31 30 28 26 24 22 21 20 18 15 15 15 15 14 13 13 13 15 18 19 21 22 23 22 21 20 20 19 19 19 19 19 19 19 19 20 20 20 20 20 19 18 17 17 17 18 20 21 21 22 23 24
14 14 14 15 16 17 18 19 19 20 21 22 24 25 26 27 29 31 33 35 37 38 39 39 38 38 38 37 36 35 34 33 33 32 30 28 26 25 23 22 20 17 15 15 15 15 15 15 15 16 17 18 20 21 23 22 22 21 20 19 19 18 18 19 19 19 19 19 19 19 19 19 19 18 18 17 16 16 18 20 20 20 20 20 20
12 12 12 13 13 14 15 16 17 18 19 21 23 24 25 27 29 31 33 36 38 39 40 40 40 39 38 37 36 36 35 35 34 33 31 29 27 26 25 23 20 17 15 15 15 15 17 18 18 18 18 19 21 22 23 22 21 21 20 19 18 17 17 18 19 19 19 19 19 19 18 18 18 17 17 16 15 15 17 19 19 18 18 18 17
10 10 10 11 11 12 13 13 15 16 17 19 21 23 25 26 29 31 34 36 38 40 40 40 40 40 39 38 37 37 37 37 36 34 32 31 29 28 26 23 19 17 16 15 15 17 19 20 21 20 19 20 22 23 23 22 21 20 20 20 18 17 17 18 18 19 19 19 19 18 17 17 17 17 16 16 15 15 15 17 17 17 17 16 15
6 7 7 8 9 10 12 12 13 14 16 17 19 21 23 25 28 31 33 36 38 40 41 41 41 40 40 39 38 38 38 38 37 35 34 32 32 30 27 23 20 17 16 16 17 20 22 23 23 22 21 22 23 24 23 21 20 20 21 20 19 17 17 17 18 19 18 18 18 17 16 16 16 16 15 15 15 15 14 14 14 14 14 14 15
3 3 4 6 7 9 10 11 12 13 14 16 17 19 21 23 26 29 32 35 38 40 41 41 41 41 40 39 39 39 39 39 38 37 35 35 34 32 28 25 22 19 17 18 20 22 24 25 25 23 22 23 24 24 23 21 20 20 21 21 19 17 17 17 18 18 18 18 18 17 16 15 14 14 14 14 14 14 14 13 12 11 10 10 12
3 4 5 6 7 8 9 10 11 12 14 15 16 18 20 22 24 27 31 34 37 39 41 41 41 42 41 40 40 40 40 40 40 38 38 38 37 35 31 28 25 21 20 21 22 24 26 26 26 24 24 24 25 24 22 21 21 21 21 21 19 17 17 18 18 18 18 18 17 17 16 15 14 13 13 13 13 13 14 13 12 11 10 9 9
4 5 6 7 7 8 9 10 11 12 13 14 15 17 18 20 23 26 28 31 34 37 39 41 41 42 41 41 41 41 42 42 41 40 40 40 39 38 35 31 26 24 23 23 25 27 28 27 27 26 26 26 25 24 22 21 21 21 21 21 19 18 18 18 18 18 19 18 18 17 16 15 14 12 12 13 13 13 13 12 12 12 12 10 10
5 6 6 7 8 8 9 9 11 12 13 14 15 16 17 18 21 23 25 28 32 34 37 39 40 40 41 41 42 42 42 41 39 39 40 39 39 39 36 30 27 26 25 26 29 31 30 29 29 29 28 27 25 24 22 21 21 21 21 20 19 18 18 18 18 18 18 18 18 17 16 14 14 12 12 12 13 13 12 12 11 12 12 12 12
7 8 8 8 9 9 9 10 11 12 13 14 15 16 17 18 20 22 24 27 30 34 36 38 39 39 41 42 42 42 41 39 37 37 39 39 38 37 35 31 30 30 29 29 31 33 32 31 31 31 29 27 26 24 22 21 21 21 21 19 19 19 19 19 18 18 18 18 17 16 15 14 14 12 11 11 12 12 12 11 11 11 11 11 11
10 10 10 10 10 10 10 10 11 12 14 15 16 16 17 19 20 22 24 26 29 33 36 37 38 39 41 42 42 41 41 39 37 37 38 38 39 39 38 36 35 34 32 32 32 33 32 32 32 31 29 28 26 24 22 21 21 22 21 19 19 19 20 20 19 18 18 17 16 16 15 15 14 13 12 11 11 11 12 11 11 11 11 10 10
10 10 10 10 9 9 9 9 10 12 13 14 16 17 17 18 20 21 23 25 27 31 34 36 38 39 41 42 42 41 41 40 38 37 38 39 41 42 41 40 38 36 35 33 32 32 33 33 33 32 30 28 26 24 22 21 21 21 20 20 20 20 20 21 20 19 18 17 16 16 15 15 15 14 13 12 12 11 12 11 10 10 10 10 9
8 7 7 7 6 6 7 8 9 11 13 14 15 16 17 18 18 19 20 22 25 29 32 35 37 39 40 42 42 41 41 40 39 38 39 41 42 44 44 44 41 38 37 35 33 34 34 34 34 32 30 28 26 24 22 21 21 21 20 21 21 21 21 21 20 19 19 17 16 15 15 14 14 14 14 13 13 12 12 12 11 10 9 10 9
5 5 5 5 5 6 7 8 10 12 13 15 16 16 17 18 17 18 19 22 24 27 29 32 35 38 40 42 42 42 41 41 40 40 40 42 44 46 46 44 41 39 38 36 34 35 36 35 34 32 30 28 27 25 23 22 21 21 21 22 22 22 22 21 21 20 19 17 16 15 15 14 14 14 14 14 14 13 13 13 13 12 10 10 10
4 5 5 5 6 7 8 9 11 12 13 15 16 17 18 18 19 20 21 22 23 25 27 29 32 35 38 40 42 42 42 42 42 42 42 44 45 46 47 46 44 43 43 40 37 36 37 36 35 32 31 29 27 25 23 22 22 22 22 22 23 23 22 21 21 20 19 17 16 15 15 15 14 14 14 14 14 14 14 14 14 14 12 11 10
4 5 5 6 6 7 8 9 10 12 13 14 16 17 18 19 20 21 22 23 24 25 26 28 29 31 34 37 39 41 43 43 43 43 44 45 46 47 48 49 49 48 46 43 39 37 37 36 35 33 32 30 28 26 24 23 23 23 23 23 23 23 22 22 21 21 19 17 16 15 15 15 15 15 15 14 14 14 14 15 15 15 15 13 12
7 7 7 7 8 8 8 9 10 11 13 14 15 17 18 19 21 22 23 25 25 26 27 28 29 30 32 35 36 38 40 42 43 44 44 45 45 47 50 50 49 47 46 43 39 37 37 37 35 34 33 31 29 27 25 24 24 24 24 24 24 23 22 22 21 20 19 17 16 15 14 15 15 15 15 14 14 14 14 15 16 16 16 15 14
9 10 10 10 10 10 10 11 11 12 12 13 14 16 17 18 20 21 23 24 25 26 28 29 29 30 32 33 34 35 37 39 41 43 44 45 46 48 50 50 48 47 46 44 40 37 37 37 35 34 33 31 29 27 26 25 25 25 24 24 24 23 23 22 21 20 19 17 16 15 14 14 15 15 14 14 14 14 15 15 16 16 16 15 15
11 11 11 11 12 12 12 13 13 13 13 14 15 15 16 17 18 19 21 22 24 25 27 28 29 30 30 31 32 33 35 38 41 43 45 46 47 48 49 48 47 46 45 43 40 39 38 38 36 34 33 31 29 28 27 27 26 25 25 25 24 24 23 22 20 19 18 17 16 14 14 14 14 14 14 14 14 14 15 15 15 16 15 15 15
10 10 11 11 12 12 13 13 14 14 15 15 15 16 16 16 17 18 19 20 22 24 25 27 29 29 29 29 30 32 34 37 40 42 44 45 46 46 47 46 45 44 42 40 39 39 39 39 37 35 34 32 30 29 28 27 27 26 26 25 25 24 22 21 20 19 18 17 15 14 14 14 14 14 14 13 13 14 14 14 15 15 15 15 14
9 10 10 10 11 11 12 12 13 14 14 15 15 16 16 17 18 18 19 20 21 22 23 25 26 27 27 29 30 31 33 36 38 40 42 43 44 45 45 45 43 41 39 37 37 37 39 39 37 36 34 32 31 30 29 29 28 27 26 25 24 23 22 21 20 18 17 16 15 14 14 13 13 13 13 13 13 13 13 14 14 14 15 15 15
9 10 10 11 11 12 12 13 14 14 15 16 16 17 18 18 19 20 20 21 22 22 23 24 24 25 26 27 28 30 32 35 36 38 40 42 44 45 45 44 43 41 39 37 35 35 37 38 37 36 35 33 32 31 30 30 29 27 26 25 24 23 22 21 19 18 17 16 15 14 14 13 13 13 13 13 13 14 14 14 14 14 14 14 14
10 11 11 12 13 13 14 14 15 15 16 17 18 18 19 20 21 22 22 23 24 24 25 25 25 25 26 27 28 30 32 34 36 37 39 41 43 44 44 44 43 41 40 38 36 34 35 37 37 36 35 33 32 31 31 29 28 27 26 25 24 23 22 21 20 18 17 16 16 15 14 14 13 13 13 13 13 13 14 14 14 14 14 14 14
12 13 13 14 14 14 15 16 16 17 18 18 19 20 20 21 22 23 24 25 25 26 27 28 28 28 28 28 29 31 32 34 35 37 38 39 41 42 42 42 41 41 40 39 36 34 35 37 38 37 35 34 33 32 31 30 29 28 27 25 24 23 22 21 20 19 18 17 16 16 15 15 14 14 13 13 14 14 14 14 14 15 14 14 14
14 15 15 15 16 16 17 18 18 19 20 21 21 22 22 23 24 25 25 26 27 27 28 29 30 30 31 31 31 32 33 34 35 36 37 38 39 40 40 39 39 38 39 38 36 35 36 38 39 38 37 35 34 33 32 31 30 28 27 25 24 23 22 22 21 19 18 17 17 16 16 15 14 14 14 14 14 14 14 15 15 15 15 15 14
16 17 17 18 19 19 20 21 22 22 23 24 25 25 26 26 27 27 28 28 29 29 30 31 31 32 33 33 34 34 34 35 36 36 36 37 37 38 38 36 36 36 36 36 35 36 37 38 39 38 37 35 34 33 32 31 30 29 27 26 24 23 23 23 22 19 18 17 17 16 16 15 14 13 13 13 14 14 14 15 15 16 15 15 15
19 19 20 21 21 22 23 24 24 25 26 27 27 28 28 29 29 30 30 31 31 32 32 33 33 34 34 34 35 36 36 36 37 37 37 37 36 36 35 34 34 34 34 34 34 36 37 39 39 39 37 35 34 34 33 32 31 30 28 26 25 24 23 23 22 19 18 17 16 15 15 14 13 13 13 13 14 14 14 14 15 15 15 16 16
22 22 23 24 24 25 25 26 27 28 28 29 29 30 30 31 31 32 32 33 34 34 34 35 35 36 36 36 36 37 37 38 38 38 38 38 37 36 35 34 33 33 33 33 33 35 37 39 40 38 37 35 34 34 33 33 32 30 28 26 25 24 24 23 22 19 18 17 16 15 15 14 13 12 13 13 13 14 14 15 15 15 15 16 16
25 25 26 26 27 28 28 29 29 30 30 31 31 32 32 33 33 34 34 35 35 36 36 36 36 37 37 37 37 37 37 38 38 38 38 38 37 37 35 33 32 32 32 32 32 33 36 38 39 37 36 35 34 34 34 33 32 31 29 27 26 25 24 24 22 20 18 17 16 15 14 13 12 12 12 13 13 14 14 15 15 15 15 15 15
27 28 29 29 30 30 30 31 31 32 32 32 33 34 34 34 35 35 36 36 36 37 37 37 37 37 37 37 37 37 37 37 37 37 37 37 37 37 36 34 33 32 32 31 31 31 34 36 37 36 35 34 34 34 35 34 33 31 29 28 27 26 25 24 22 20 19 17 16 15 14 13 12 12 12 12 13 14 15 15 16 16 16 16 16
30 31 31 32 32 32 33 33 33 33 34 34 34 35 35 36 36 36 37 37 37 37 37 37 37 37 36 36 35 35 36 36 36 36 36 36 36 36 36 35 34 33 32 31 30 30 32 33 34 34 34 34 34 35 35 34 33 31 30 29 28 27 25 24 22 21 19 18 17 16 15 13 12 12 12 12 13 14 14 15 16 17 17 17 17
Wind_Direction
237 238 239 240 239 239 238 238 237 236 236 235 235 235 233 231 232 231 231 235 237 236 236 236 233 233 232 220 208 202 196 191 188 189 191 192 192 190 188 187 191 195 200 217 234 259 287 302 312 318 321 323 323 321 321 322 323 326 328 329 331 332 333 333 330 328 330 334 335 335 335 335 335 335 333 333 334 336 338 340 339 341 344 347 348
238 239 240 240 240 240 238 238 237 236 235 234 234 234 231 231 231 229 232 236 232 230 232 232 231 232 226 215 207 200 194 190 190 191 193 194 191 189 189 190 195 199 203 216 232 255 279 291 303 309 313 316 316 317 319 322 324 326 328 330 331 332 333 334 332 330 330 332 335 334 335 335 334 334 333 333 335 337 339 340 341 343 346 349 349
239 240 240 240 240 239 238 238 236 235 235 234 234 233 230 231 231 231 236 233 224 225 231 230 230 231 223 213 205 197 192 191 193 194 194 194 192 189 189 192 198 203 206 217 231 248 268 280 293 302 308 311 313 317 321 324 326 328 330 331 332 334 334 334 333 332 330 332 334 334 334 335 334 334 334 335 337 338 339 340 342 345 347 348 349
242 242 241 241 240 239 239 237 236 235 235 234 233 231 230 229 229 231 234 227 222 229 232 227 231 232 224 213 202 194 192 192 194 195 194 192 190 190 193 196 200 202 206 218 229 242 258 274 288 298 305 310 314 320 324 327 329 330 332 332 334 335 335 335 334 333 332 332 333 334 333 333 334 335 335 336 337 339 339 341 344 347 348 348 350
245 244 244 243 242 241 240 238 236 236 234 234 232 229 229 227 226 230 231 224 225 232 225 222 233 235 223 210 201 194 193 195 195 195 194 191 189 191 195 199 201 202 207 216 226 238 253 271 286 297 305 311 318 324 327 329 330 331 333 334 335 335 336 335 334 333 332 332 332 332 333 333 335 336 337 337 337 338 340 343 346 347 347 349 351
245 244 243 242 241 241 239 237 236 235 234 233 231 227 226 225 226 229 228 223 227 228 219 221 237 237 219 206 199 195 195 197 197 197 196 193 192 193 197 200 201 202 207 214 224 237 252 270 288 298 307 316 321 325 328 330 331 333 334 335 335 335 335 334 334 333 332 332 331 330 332 334 335 336 338 338 338 340 342 344 346 346 347 349 351
245 243 241 239 239 238 237 236 234 232 232 230 227 224 223 224 226 226 224 225 227 221 217 226 238 231 212 202 198 197 198 198 197 197 197 196 196 196 198 201 201 203 208 215 223 237 254 272 290 303 312 320 323 326 329 331 333 334 334 335 335 334 334 333 333 332 331 331 330 330 332 334 336 337 338 339 341 343 344 342 343 346 348 350 352
244 242 240 238 237 234 232 232 229 228 228 224 220 218 219 223 227 224 222 222 220 216 220 230 232 220 205 200 198 198 199 200 198 197 197 197 198 198 199 201 202 205 209 215 223 237 256 276 295 307 316 322 325 328 331 332 335 335 334 335 334 333 332 332 332 332 330 330 330 332 333 334 336 337 338 340 342 343 343 341 341 344 347 349 351
241 238 237 234 232 228 226 224 222 222 219 214 214 216 217 222 224 222 220 216 212 219 231 232 225 212 203 199 199 199 200 201 201 200 199 199 199 199 200 202 203 206 211 215 224 238 258 281 300 311 319 325 327 330 333 334 335 335 334 334 332 331 331 331 331 331 330 331 332 334 334 334 337 338 339 342 341 339 340 340 340 343 344 346 350
240 235 233 230 225 224 221 215 213 217 212 208 213 217 218 220 217 217 220 214 210 223 234 230 220 211 203 199 199 200 201 201 202 202 202 201 201 201 201 202 204 208 212 215 225 240 262 286 303 315 323 328 330 332 333 334 334 333 333 332 330 330 330 330 331 331 331 332 334 335 334 335 338 340 340 341 338 336 338 340 340 342 342 343 346
244 238 234 229 222 220 219 211 209 213 213 210 212 215 216 218 217 217 218 216 216 226 232 227 217 209 204 202 201 201 201 202 202 202 202 202 203 203 203 204 206 208 211 215 225 239 264 293 310 322 327 329 331 332 333 333 332 331 331 330 329 329 329 330 331 331 332 333 334 335 334 334 337 341 340 339 336 335 337 337 336 337 338 338 341
247 241 235 230 223 219 217 215 213 213 211 212 214 215 214 215 216 215 215 219 224 229 230 224 213 206 204 204 203 202 202 203 203 203 203 202 202 202 203 205 207 208 211 215 225 240 268 299 316 326 328 330 331 331 331 330 328 328 329 328 328 327 328 330 331 331 332 332 332 334 334 334 337 341 339 335 333 334 335 335 333 332 334 335 339
247 243 238 233 227 221 215 215 220 220 215 214 216 215 214 214 216 219 221 226 229 229 227 218 208 205 205 204 205 205 204 205 204 204 204 204 203 203 204 206 207 209 212 215 224 239 273 305 322 328 328 329 329 328 327 326 325 326 327 326 326 326 327 329 330 331 332 330 329 332 335 335 336 338 335 331 331 332 333 334 333 331 332 334 338
244 243 241 237 230 226 218 214 219 222 221 219 218 217 218 220 223 226 229 232 231 227 220 211 206 206 206 205 206 207 207 207 206 205 205 204 204 204 205 206 207 209 211 216 224 240 274 306 321 326 325 326 325 322 322 322 323 324 324 323 324 324 326 329 330 331 330 327 328 331 334 335 334 333 332 330 328 327 328 332 333 332 334 334 337
241 241 240 237 232 228 223 220 220 220 219 220 220 220 222 224 227 230 232 232 229 222 214 208 206 207 207 206 207 208 208 208 207 207 206 205 205 206 205 207 208 210 213 217 222 234 264 296 314 320 320 320 318 317 318 319 320 320 319 320 322 322 325 328 330 329 328 327 329 331 333 334 332 330 330 328 325 323 324 327 330 331 334 336 337
238 240 240 239 236 231 227 225 225 224 222 221 222 224 226 228 230 232 231 227 220 215 211 209 208 207 207 208 208 209 209 208 208 209 208 207 207 206 206 208 210 211 214 216 217 226 251 279 296 308 314 315 313 313 315 316 316 316 316 318 320 321 324 327 327 327 328 329 330 330 332 332 329 328 328 326 324 322 322 325 330 333 335 336 337
237 240 242 242 241 237 233 229 228 228 228 228 229 230 230 231 230 227 223 217 213 212 211 210 210 209 209 210 210 210 210 209 210 210 210 209 208 207 208 209 211 214 214 215 218 229 249 268 283 301 310 310 309 310 312 313 312 312 314 315 318 322 324 326 327 328 330 329 328 330 331 329 327 327 328 326 323 321 322 328 334 335 335 336 336
237 238 240 242 243 242 238 234 231 231 232 232 233 232 230 228 225 221 218 216 214 213 211 211 211 211 212 213 214 214 213 212 212 212 212 211 209 209 210 211 214 215 215 217 226 239 254 265 277 297 305 305 306 308 309 309 308 309 311 314 318 321 323 325 327 328 329 328 327 330 330 327 327 328 329 327 323 321 324 331 336 334 333 335 335
238 238 239 241 242 242 240 237 234 233 233 234 233 230 227 224 222 220 219 218 217 215 213 213 213 212 213 215 217 217 215 214 214 214 214 213 211 210 211 213 215 216 217 225 237 249 258 265 275 291 297 300 304 305 305 305 304 306 309 313 317 320 322 325 326 327 328 327 328 330 328 327 329 329 328 328 324 324 329 334 335 333 332 333 333
240 240 241 240 241 242 241 239 237 235 235 235 233 230 227 225 224 222 221 219 218 217 216 215 215 215 216 216 217 218 217 216 216 216 216 215 213 212 213 215 216 218 224 236 248 256 262 269 276 283 290 297 301 302 302 301 300 303 307 311 315 317 320 323 325 325 326 328 329 329 328 328 329 328 329 329 326 327 332 335 334 333 330 331 332
238 239 241 241 241 243 243 242 240 238 237 237 235 234 232 230 229 227 225 222 219 218 218 217 217 218 219 219 218 218 217 217 217 218 217 216 215 214 215 215 218 222 233 246 255 262 270 276 276 276 284 293 297 298 297 295 296 300 304 308 311 314 318 321 322 324 326 327 328 328 326 327 328 328 330 329 326 328 332 334 334 333 330 330 330
229 233 235 236 238 241 243 245 245 243 242 241 240 239 237 235 234 232 229 226 223 220 219 219 219 219 220 220 219 218 218 219 218 218 219 218 216 216 216 216 219 227 240 253 261 269 280 281 274 271 279 289 293 293 291 290 293 298 302 304 307 311 315 318 321 323 325 326 325 324 324 323 325 328 328 326 326 329 332 335 336 334 331 331 330
219 224 227 230 233 235 239 243 244 245 245 245 244 244 242 239 237 234 230 228 225 222 221 220 220 221 221 221 221 221 221 221 220 219 218 218 217 218 217 217 222 232 246 257 268 281 290 283 269 267 277 285 288 287 285 286 291 296 299 300 303 308 312 316 319 321 322 321 320 320 321 321 323 326 325 323 326 331 334 336 336 335 332 331 330
208 212 218 223 227 230 234 236 239 242 243 244 245 244 243 241 239 235 232 229 227 225 224 223 222 223 224 224 224 224 224 225 223 221 219 219 218 219 218 218 224 237 250 264 279 292 293 279 266 266 275 281 282 282 281 285 290 293 295 297 299 305 311 315 317 317 316 316 316 317 319 319 320 323 323 322 324 330 336 337 337 336 333 330 329
192 200 212 220 223 229 232 233 236 239 240 243 245 245 245 244 241 237 233 231 229 228 227 226 226 226 227 227 228 228 228 228 226 223 220 219 219 219 219 221 229 242 257 273 287 294 289 275 264 266 273 275 276 277 278 283 288 290 292 294 297 303 309 312 312 311 311 313 313 314 316 317 317 320 321 321 322 326 335 338 337 336 332 326 325
178 208 227 234 235 237 237 237 237 237 239 242 245 245 246 245 244 241 237 234 232 231 230 230 230 230 230 231 232 233 232 231 229 226 222 220 220 219 219 224 234 246 259 273 284 289 285 272 264 265 270 270 272 274 277 282 285 286 289 292 295 302 306 307 307 307 308 310 311 312 313 312 314 317 317 317 319 323 329 335 337 336 331 322 317
205 228 240 246 247 247 247 246 243 241 240 241 242 244 244 243 242 241 239 236 235 233 232 232 232 232 234 234 235 235 235 234 231 228 226 224 222 221 222 228 238 248 259 270 282 289 283 270 262 263 266 266 268 271 275 279 282 283 286 290 294 299 301 301 303 304 305 307 308 309 309 308 310 314 314 313 315 318 323 330 334 335 335 326 317
215 230 240 247 249 250 252 253 252 252 249 245 244 244 244 245 245 244 243 242 240 239 238 237 237 237 238 238 237 237 236 235 234 234 233 231 228 225 226 233 243 253 261 271 282 287 282 269 261 261 262 262 264 268 271 275 278 281 284 289 293 295 295 297 300 301 303 305 305 306 307 305 306 310 311 310 310 312 318 324 329 332 332 330 325
215 226 235 241 246 249 253 255 256 257 255 253 251 248 246 247 249 250 250 248 246 246 246 245 245 245 244 243 242 241 240 241 243 243 240 237 234 231 232 240 252 259 263 271 279 282 277 266 259 258 258 259 262 265 268 271 275 279 283 287 291 292 291 292 296 298 299 301 303 304 304 302 302 304 305 305 304 306 312 319 324 327 328 327 326
213 220 225 230 236 239 243 248 251 253 254 253 252 250 248 246 246 246 247 247 246 246 246 246 247 247 246 246 247 247 248 252 253 249 243 238 234 233 237 245 254 257 259 265 270 272 268 261 256 254 255 257 260 262 265 269 274 278 282 285 288 289 288 289 291 293 294 296 299 300 300 297 296 296 298 298 298 300 306 313 318 320 321 324 325
210 215 216 219 222 225 230 237 243 247 250 250 249 249 248 247 246 245 244 245 245 246 246 246 246 245 245 246 247 247 249 251 251 249 245 241 236 234 238 245 251 255 257 259 262 264 263 258 254 252 253 255 257 259 262 267 273 277 280 282 285 286 286 286 287 288 290 292 294 297 297 294 292 292 293 293 291 292 299 307 313 313 314 317 320
210 210 210 213 217 222 227 236 245 249 252 252 251 251 251 250 250 249 248 248 248 248 248 248 247 246 246 247 247 247 247 248 247 246 244 241 238 237 240 246 251 256 258 257 258 259 258 254 251 251 252 253 255 257 260 265 270 274 277 280 282 283 283 283 284 284 286 288 290 293 293 291 290 290 291 290 288 285 290 297 303 305 305 308 311
218 217 219 224 230 237 243 250 255 256 256 255 254 254 254 254 256 256 255 254 252 251 250 249 248 248 247 247 248 248 247 247 247 245 242 241 240 239 241 246 251 255 258 258 258 257 255 252 250 250 251 252 253 255 258 262 266 270 274 277 278 279 279 279 279 281 282 283 286 288 289 288 288 288 288 288 285 283 285 289 294 298 299 299 299
234 238 243 247 251 256 259 262 264 264 263 261 259 258 257 256 258 258 257 256 255 254 253 253 252 251 249 249 249 248 247 246 245 244 242 242 241 241 242 246 250 254 257 259 259 256 252 250 250 250 251 252 253 254 257 259 263 267 271 273 275 276 275 275 275 277 278 279 282 284 286 287 286 285 285 286 285 285 284 286 289 291 293 293 292
261 258 258 258 259 260 263 266 268 269 270 268 266 264 261 258 257 256 255 256 257 258 258 257 256 255 254 253 251 250 249 247 246 244 243 242 241 242 243 245 248 252 255 258 258 254 252 251 251 252 252 252 252 253 255 257 261 265 268 270 272 272 271 271 272 273 274 276 278 281 284 287 286 285 284 285 286 287 286 286 286 287 288 289 290
301 295 290 283 278 273 270 269 269 269 269 269 268 266 265 262 261 259 257 256 256 256 257 257 257 257 257 256 255 253 251 248 247 246 245 244 243 244 245 247 250 253 257 260 260 258 254 253 252 251 250 250 251 252 253 256 260 263 265 267 268 267 267 267 268 269 270 272 274 278 281 284 286 286 286 286 287 287 286 286 286 286 286 287 288
310 309 306 302 298 294 288 283 279 275 272 272 270 269 268 266 265 263 261 260 259 258 258 258 257 258 258 257 256 256 254 252 250 248 247 246 246 247 248 251 253 255 258 261 262 259 255 253 252 250 249 249 250 250 252 255 258 261 263 264 264 263 264 265 265 265 267 268 270 274 277 281 283 284 285 287 288 288 287 287 286 286 286 286 285
300 299 299 298 297 297 294 292 289 287 284 283 280 277 276 273 271 269 268 266 265 263 262 261 260 260 260 260 260 259 258 255 252 250 248 248 247 249 251 253 254 257 260 262 261 257 254 253 252 251 249 249 248 249 251 254 257 258 260 261 261 261 261 260 260 261 262 264 266 269 273 276 279 282 284 286 288 289 289 289 288 288 287 286 284
296 297 297 296 296 295 295 294 294 293 293 291 289 287 285 283 282 280 278 276 274 272 271 270 268 266 265 265 265 263 260 258 255 254 253 252 253 254 255 257 258 260 262 263 260 256 253 252 251 250 248 247 247 248 252 254 255 256 257 258 259 258 256 256 256 257 258 260 262 266 270 273 276 279 282 285 286 288 289 290 290 291 290 289 286
298 299 298 297 297 297 296 297 297 296 295 295 294 293 292 291 289 286 283 282 281 279 278 277 275 274 273 270 268 266 265 263 262 261 261 260 260 260 261 261 263 264 266 266 263 259 255 254 252 250 248 247 247 249 252 253 252 253 255 255 255 254 253 252 253 254 255 257 260 263 267 270 273 276 280 283 285 287 288 288 290 292 294 294 292
296 295 296 297 298 298 298 297 296 295 296 296 297 297 296 295 294 292 290 288 286 284 281 280 279 278 275 271 269 267 266 265 265 265 264 264 263 263 263 264 265 266 267 266 264 261 258 255 253 250 247 246 247 249 250 250 250 252 253 252 251 250 250 250 251 251 253 255 258 262 265 267 270 274 278 281 285 287 289 290 291 291 293 295 295
291 293 296 296 296 295 294 293 292 292 293 294 294 294 294 294 294 293 293 292 291 289 287 285 283 281 277 274 271 268 266 265 264 264 263 263 263 263 264 264 264 265 265 264 262 260 257 255 252 249 246 245 247 249 249 249 250 251 250 248 247 246 247 248 249 249 251 254 258 262 264 266 270 274 277 280 284 287 289 292 293 292 292 293 295
290 291 292 291 291 291 291 290 291 292 292 292 292 292 291 291 290 290 290 289 289 289 288 287 285 283 279 276 273 269 267 266 265 264 263 263 263 264 264 264 265 265 264 263 261 259 255 251 249 247 245 246 248 248 248 249 249 248 246 244 243 242 244 246 248 249 250 253 257 261 263 265 269 272 275 279 283 285 288 291 292 292 293 294 294
288 289 289 289 291 292 292 293 294 294 294 294 293 292 292 291 290 289 289 288 288 287 286 286 285 284 282 279 276 273 271 269 268 267 266 265 265 265 266 266 266 266 264 263 262 259 253 248 245 244 244 245 246 246 246 246 245 243 241 239 239 240 242 245 247 247 249 252 255 258 262 265 267 270 273 276 279 282 285 287 289 290 291 292 294
290 291 292 293 294 295 295 296 295 294 294 294 293 293 293 292 292 292 291 290 290 289 288 287 286 285 284 282 280 278 276 275 273 272 269 267 266 266 266 266 266 265 264 262 260 257 252 248 245 245 245 246 246 246 246 245 243 240 238 236 237 239 241 243 244 246 247 250 253 255 258 262 265 268 272 275 278 281 283 284 285 287 289 291 294
292 293 294 294 294 294 294 294 294 293 294 293 293 293 292 292 292 292 291 290 290 289 288 287 285 284 283 282 281 280 279 277 276 275 273 270 268 266 266 265 263 262 260 258 257 255 251 247 246 246 247 247 247 247 246 244 240 237 235 235 236 238 239 241 244 245 245 247 249 251 255 259 262 266 270 274 277 281 284 285 285 286 287 289 292
293 293 293 293 293 293 293 292 292 292 292 292 292 292 291 291 291 291 290 290 289 288 287 287 286 284 283 282 281 280 278 277 276 275 274 272 270 267 264 262 259 258 257 256 254 252 248 246 245 245 246 246 246 246 244 241 238 236 235 236 236 236 237 239 241 242 242 244 246 249 252 255 259 264 270 273 277 282 286 288 289 289 289 289 290
293 293 292 292 292 292 292 292 292 292 292 292 292 292 292 291 291 291 290 290 289 288 288 287 286 285 284 283 282 281 279 278 277 276 274 273 271 268 264 259 256 255 255 253 251 249 247 245 244 245 245 245 246 245 243 240 237 236 237 236 235 234 235 237 238 238 238 240 243 246 250 254 258 263 269 273 278 283 287 289 291 293 293 293 292
294 294 293 293 293 292 292 292 292 292 292 292 292 292 292 292 292 291 291 291 290 289 289 288 287 287 286 285 283 282 281 279 278 277 275 273 271 268 264 259 254 252 251 250 249 247 246 244 244 245 245 246 246 245 242 239 238 238 237 236 233 232 233 234 235 235 235 237 240 244 248 252 256 262 269 274 279 283 286 289 291 294 295 296 296
295 295 294 293 293 293 292 292 292 292 292 291 291 292 292 292 292 292 291 291 291 290 290 289 289 288 287 285 284 283 282 280 279 278 276 274 271 267 263 258 253 249 247 247 247 247 246 244 244 244 245 246 245 243 240 239 239 239 237 235 233 232 231 232 232 233 234 235 238 241 246 250 255 261 268 274 278 282 285 288 291 294 296 297 298
295 295 294 294 294 293 293 292 292 291 291 291 291 291 291 291 291 291 291 290 290 290 290 290 289 288 287 286 285 284 284 283 282 280 278 275 271 267 263 259 254 249 246 245 245 245 245 244 243 244 246 245 243 240 238 239 240 239 236 234 232 231 231 231 231 232 233 234 237 241 245 249 254 262 269 273 277 281 285 288 291 294 296 297 298